Mattoon, IL

3:24 AM CDT on October 23, 2019 (GMT -0500)
Coles County Memorial

Weather History for KMTO - May, 2019

Change the Weather History Date:

Wednesday, May 1, 2019

  Actual Average Record
Temperature  
Mean Temperature 66 °F 59 °F  
Max Temperature 71 °F 69 °F 88 °F (1952)
Min Temperature 60 °F 49 °F 30 °F (1963)
Degree Days  
Heating Degree Days 0 7  
Month to date heating degree days 0 7  
Since 1 July heating degree days 5387 5269  
Cooling Degree Days 1 1  
Month to date cooling degree days 1 1  
Year to date cooling degree days 6 15  
Growing Degree Days 16 (Base 50)    
Moisture  
Dew Point 59 °F    
Average Humidity 79    
Maximum Humidity 97    
Minimum Humidity 61    
Precipitation  
Precipitation T in 0.16 in 2.18 in (1983)
Month to date precipitation T 0.16  
Year to date precipitation 9.02 10.14  
Sea Level Pressure  
Sea Level Pressure 29.97 in    
Wind  
Wind Speed 11 mph (SSW)    
Max Wind Speed 26 mph    
Max Gust Speed 41 mph    
Visibility 10 miles    
Events Rain    
T = Trace of Precipitation, MM = Missing Value Source: NWS Daily Summary

Daily Weather History Graph

Daily Weather History Graph

Search for Another Location

Airport or City:

Astronomy

May. 01, 2019 Rise Set
Actual Time 5:54 AM CDT 7:46 PM CDT
Civil Twilight 5:25 AM CDT 8:15 PM CDT
Nautical Twilight 4:50 AM CDT 8:51 PM CDT
Astronomical Twilight 4:12 AM CDT 9:29 PM CDT
Moon 4:38 AM CDT (5/1) 4:35 PM CDT (5/1)
Length of Visible Light 14h 50m
Length of Day
13h 52m
Waning Crescent, 10% of the Moon is Illuminated
May 1
Waning Crescent
May 4
New
May 11
First Quarter
May 18
Full
May 26
Last Quarter

Hourly Weather History & Observations

Time (CDT) Temp. Dew Point Humidity Pressure Visibility Wind Dir Wind Speed Gust Speed Precip Events Conditions
12:53 AM 70.0 °F 60.1 °F 71% 29.88 in 10.0 mi South 12.7 mph - N/A   Partly Cloudy
1:53 AM 70.0 °F 57.9 °F 65% 29.83 in 10.0 mi SSE 17.3 mph 25.3 mph N/A   Mostly Cloudy
2:53 AM 70.0 °F 57.0 °F 63% 29.78 in 10.0 mi SSE 21.9 mph 36.8 mph N/A   Scattered Clouds
3:53 AM 70.0 °F 57.0 °F 63% 29.79 in 10.0 mi South 23.0 mph 40.3 mph N/A   Partly Cloudy
4:53 AM 64.9 °F 57.9 °F 78% 29.85 in 10.0 mi SSW 18.4 mph 32.2 mph N/A   Mostly Cloudy
5:53 AM 63.0 °F 59.0 °F 87% 29.90 in 10.0 mi SSW 10.4 mph 23.0 mph 0.00 in Rain Light Rain
6:53 AM 62.1 °F 59.0 °F 90% 29.94 in 10.0 mi SSW 10.4 mph - 0.00 in   Overcast
7:53 AM 62.1 °F 61.0 °F 96% 29.94 in 10.0 mi SSW 11.5 mph - 0.00 in   Mostly Cloudy
8:53 AM 64.0 °F 60.1 °F 87% 29.93 in 10.0 mi South 12.7 mph - 0.00 in Rain Light Rain
9:46 AM 64.9 °F 60.1 °F 84% 29.99 in 10.0 mi SW 8.1 mph 18.4 mph 0.00 in   Overcast
9:53 AM 64.9 °F 60.1 °F 84% 29.98 in 10.0 mi SW 11.5 mph 21.9 mph 0.00 in   Overcast
10:36 AM 64.9 °F 59.0 °F 81% 30.00 in 10.0 mi SW 8.1 mph - N/A   Overcast
10:53 AM 66.0 °F 60.1 °F 81% 29.99 in 10.0 mi SW 9.2 mph - N/A   Overcast
11:06 AM 66.9 °F 60.1 °F 79% 30.00 in 10.0 mi West 10.4 mph - N/A   Overcast
11:34 AM 68.0 °F 60.1 °F 76% 30.00 in 10.0 mi SSW 10.4 mph - N/A   Scattered Clouds
11:53 AM 70.0 °F 59.0 °F 68% 30.00 in 10.0 mi SW 10.4 mph - N/A   Partly Cloudy
12:53 PM 70.0 °F 57.9 °F 65% 30.00 in 10.0 mi Variable 6.9 mph - N/A   Partly Cloudy
1:53 PM 71.1 °F 57.0 °F 61% 30.01 in 10.0 mi SW 12.7 mph 20.7 mph N/A   Mostly Cloudy
2:53 PM 70.0 °F 55.9 °F 61% 30.01 in 10.0 mi SSW 11.5 mph 25.3 mph N/A   Mostly Cloudy
3:53 PM 69.1 °F 57.0 °F 65% 30.01 in 10.0 mi SSW 11.5 mph - N/A   Partly Cloudy
4:53 PM 66.9 °F 57.9 °F 73% 30.01 in 10.0 mi SSW 8.1 mph - N/A   Partly Cloudy
5:53 PM 69.1 °F 60.1 °F 73% 30.01 in 10.0 mi South 6.9 mph - N/A   Partly Cloudy
6:53 PM 66.9 °F 59.0 °F 76% 30.01 in 10.0 mi South 6.9 mph - N/A   Clear
7:53 PM 64.0 °F 59.0 °F 84% 30.01 in 10.0 mi SSE 4.6 mph - N/A   Clear
8:53 PM 61.0 °F 57.9 °F 90% 30.04 in 10.0 mi South 4.6 mph - 0.00 in   Clear
9:53 PM 62.1 °F 59.0 °F 90% 30.05 in 10.0 mi SSE 5.8 mph - 0.00 in   Clear
10:53 PM 62.1 °F 59.0 °F 90% 30.05 in 10.0 mi South 4.6 mph - N/A   Clear
11:53 PM 61.0 °F 59.0 °F 93% 30.06 in 9.0 mi SSE 8.1 mph - N/A   Clear